Location: Chmeln�
(49.6483°N, 14.9871°E)
Time: 07:34:27
(UTC+00:00)

Lacrosse 5 rocket - Pass Details

Date: 21 January 2021
Orbit: 465 x 630 km, 57.0° (Epoch: 04 March)

Event Time Altitude Azimuth Distance (km) Brightness Sun altitude
Exits shadow 03:35:59 24° 77° (ENE) 1,097 3.4 -30.3°
Drops below altitude 10° 03:37:45 10° 93° (E) 1,709 4.7 -30.1°
Sets 03:39:57 0° 100° (E) 2,566 5.8 -29.7°
